Regional Weather Roundup
Issued by NWS Green Bay, WI

Home | Current Version | Previous Version | Text Only | Print | Product List | Glossary On
Versions: 1 2 3 4 5 6 7 8 9 10 11 12 13 14 15 16 17 18 19 20 21 22 23 24 25 26 27 28 29 30 31 32 33 34 35 36 37 38 39 40 41 42 43 44 45 46 47 48 49 50
000
ASUS43 KGRB 230700
RWRGRB

NORTH-CENTRAL AND NORTHEAST WISCONSIN REGIONAL WEATHER ROUNDUP
NATIONAL WEATHER SERVICE GREEN BAY WI
200 AM CDT MON APR 23 2018

WIZ005-009-010>012-018-019-230800-
NORTH CENTRAL WISCONSIN

CITY           SKY/WX    TMP DP  RH WIND       PRES   REMARKS
IRONWOOD       FAIR      46  25  43 S6        30.25S
MANITOWISH WTR NOT AVBL
ARBOR VITAE    NOT AVBL
EAGLE RIVER    FAIR      30  22  72 CALM      30.27S
LAND O LAKES   FAIR      29  22  74 CALM      30.29S
RHINELANDER    FAIR      32  19  58 CALM      30.27F
PHILLIPS       FAIR      32  26  78 CALM      30.26S
ANTIGO         NOT AVBL
TOMAHAWK       NOT AVBL
MERRILL          N/A     29  21  73 CALM      30.27F
$$

WIZ013-073-230800-
NORTHEAST WISCONSIN

CITY           SKY/WX    TMP DP  RH WIND       PRES   REMARKS
IRON MOUNTAIN  FAIR      29  20  69 NW3       30.27S
MARINETTE      FAIR      31  26  82 CALM      30.30F
$$

WIZ017-030-035>037-045-230800-
CENTRAL WISCONSIN

CITY           SKY/WX    TMP DP  RH WIND       PRES   REMARKS
MEDFORD        NOT AVBL
WAUSAU         FAIR      32  23  69 CALM      30.26S
MOSINEE        NOT AVBL
MARSHFIELD     FAIR      37  27  67 E3        30.26S
WISC RAPIDS    FAIR      37  24  59 CALM      30.28S
STEVENS POINT  NOT AVBL
WAUPACA        FAIR      33  29  85 CALM      30.29S
SHAWANO        FAIR      32  29  86 CALM      30.29S
CLINTONVILLE   FAIR      33  26  76 CALM      30.29S
WAUTOMA        FAIR      31  27  85 CALM      30.29S
$$

WIZ038-039-048-051-230800-
FOX VALLEY

CITY           SKY/WX    TMP DP  RH WIND       PRES   REMARKS
NWS GREEN BAY  FAIR      35  27  72 CALM      30.29S
APPLETON       NOT AVBL
OSHKOSH        FAIR      40  28  62 CALM      30.28S
FOND DU LAC    FAIR      37  24  59 CALM      30.28S
$$

WIZ022-050-052-230800-
EAST CENTRAL WISCONSIN

CITY           SKY/WX    TMP DP  RH WIND       PRES   REMARKS
EPHRAIM        NOT AVBL
WASHINGTON ISL NOT AVBL
STURGEON BAY   NOT AVBL
MANITOWOC      FAIR      34  28  79 CALM      30.30S
SHEBOYGAN      FAIR      35  27  72 N5        30.28S
$$

LMZ563-521-522-541>543-230800-
LAKESHORE

STATION/POSITION TIME  TEMP    WIND        PRES    VSBY  WAVE
                       AIR SEA DIR/SP/G                  HT/PER
                 (UTC) (F)     (DEG/KT/KT) (MB)    (MI)  (FT/S)
SHEBOYGAN LKSHOR 0600   42     350/ 11/ 12 1026.1S
KEWAUNEE LKSHORE 0630   33     300/  4/  5 1025.1F
NORTHPORT PIER   0640   35                 1025.7F
SISTER BAY LKSHO 0627   38        CALM       N/A
MENOMINEE LKSHOR 0630   35      CALM  /  1 1025.4F
$$




USA.gov is the U.S. government's official web portal to all federal, state and local government web resources and services.